DW6279 Weather Reports


time (UTC)temp
C
wind
direction
speed
KPH
gust
KPH
rain 1hr
cm
rain 24hr
cm
rain mn
cm
humidity
%
barometer
mb
20260510044536 15 0.0 4.8 0.00 0.00 0.00 85 1011.3
20260510043517 15 0.0 0.0 0.00 0.00 0.00 85 1011.4
20260510042517 15 0.0 1.6 0.00 0.00 0.00 84 1011.4
20260510041517 15 0.0 0.0 0.00 0.00 0.00 83 1011.4
20260510040517 15 0.0 0.0 0.00 0.00 0.00 83 1011.4
20260510035516 15 0.0 0.0 0.00 0.00 0.00 83 1011.3
20260510034516 15 0.0 0.0 0.00 0.00 0.00 83 1011.3
20260510033516 15 0.0 4.8 0.00 0.00 0.00 83 1011.2
20260510032516 15 0.0 0.0 0.00 0.00 0.00 82 1011.3
20260510031516 16 0.0 0.0 0.00 0.00 0.00 82 1011.3
20260510030516 16 0.0 0.0 0.00 0.00 0.00 81 1011.2
20260510025516 16 0.0 0.0 0.00 0.00 0.00 79 1011.2
20260510024516 16 0.0 0.0 0.00 0.00 0.00 78 1011.1
20260510023516 17 0.0 0.0 0.00 0.00 0.00 78 1010.9
20260510022516 17 0.0 0.0 0.00 0.00 0.00 77 1010.9
20260510021516 17 0.0 0.0 0.00 0.00 0.00 76 1010.8
20260510020516 17 0.0 0.0 0.00 0.00 0.00 76 1010.8
20260510015516 17 0.0 0.0 0.00 0.00 0.00 76 1010.7
20260510014516 17 0.0 0.0 0.00 0.00 0.00 75 1010.8
20260510013516 17 0.0 3.2 0.00 0.00 0.00 76 1010.5
20260510012516 18 0.0 0.0 0.00 0.00 0.00 74 1010.4
20260510011516 18 68 1.6 8.0 0.00 0.00 0.00 73 1010.2
20260510010516 18 0.0 3.2 0.00 0.00 0.00 72 1010.1
20260510005516 18 0.0 0.0 0.00 0.00 0.00 71 1010.0
20260510004516 18 0.0 1.6 0.00 0.00 0.00 70 1009.8
20260510003516 18 0.0 0.0 0.00 0.00 0.00 69 1009.8
20260510002516 19 0.0 0.0 0.00 0.00 0.00 66 1009.8
20260510001516 20 0.0 0.0 0.00 0.00 0.00 64 1009.7
20260510000516 21 0.0 0.0 0.00 0.00 0.00 62 1009.6
20260509235516 21 0.0 0.0 0.00 0.00 0.00 59 1009.7
20260509234516 22 0.0 0.0 0.00 0.00 0.00 58 1009.5
20260509233516 22 0.0 0.0 0.00 0.00 0.00 56 1009.4
20260509232516 22 0.0 0.0 0.00 0.00 0.00 55 1009.5
20260509231516 22 0.0 0.0 0.00 0.00 0.00 55 1009.3
20260509230516 22 0.0 0.0 0.00 0.00 0.00 55 1009.4
20260509225516 22 0.0 4.8 0.00 0.00 0.00 57 1009.4
20260509224516 23 0.0 4.8 0.00 0.00 0.00 54 1009.5
20260509223516 23 180 1.6 8.0 0.00 0.00 0.00 53 1009.3
20260509222516 22 0.0 0.0 0.00 0.00 0.00 53 1009.5
20260509221516 23 0.0 0.0 0.00 0.00 0.00 52 1009.5
20260509220516 23 0.0 0.0 0.00 0.00 0.00 52 1009.4
20260509215516 23 225 1.6 6.4 0.00 0.00 0.00 51 1009.4
20260509214516 23 0.0 4.8 0.00 0.00 0.00 50 1009.5
20260509213516 23 0.0 1.6 0.00 0.00 0.00 51 1009.4
20260509212516 23 0.0 6.4 0.00 0.00 0.00 50 1009.5
20260509211516 24 0.0 3.2 0.00 0.00 0.00 50 1009.5
20260509210516 24 270 1.6 11.3 0.00 0.00 0.00 50 1009.5
20260509205516 23 270 3.2 12.9 0.00 0.00 0.00 50 1009.4
20260509204516 24 293 1.6 6.4 0.00 0.00 0.00 50 1009.4
20260509203516 23 203 1.6 11.3 0.00 0.00 0.00 52 1009.3
20260509202516 23 270 1.6 11.3 0.00 0.00 0.00 51 1009.2
20260509201516 23 248 1.6 11.3 0.00 0.00 0.00 52 1009.5
20260509200516 23 203 3.2 12.9 0.00 0.00 0.00 51 1009.7
20260509195516 23 158 4.8 17.7 0.00 0.00 0.00 52 1009.8
20260509194516 23 203 1.6 14.5 0.00 0.00 0.00 53 1010.0
20260509193516 23 135 1.6 11.3 0.00 0.00 0.00 56 1010.0
20260509192516 22 180 1.6 9.7 0.00 0.00 0.00 56 1010.5
20260509191516 22 203 1.6 11.3 0.00 0.00 0.00 57 1010.4
20260509190518 22 225 1.6 12.9 0.00 0.00 0.00 56 1010.5
20260509185516 21 203 1.6 11.3 0.00 0.00 0.00 58 1010.4
20260509184516 21 225 3.2 16.1 0.00 0.00 0.00 60 1010.6
20260509183516 20 0.0 0.0 0.00 0.00 0.00 61 1010.6
20260509182516 20 0.0 0.0 0.00 0.00 0.00 61 1010.6
20260509181516 20 0.0 0.0 0.00 0.00 0.00 61 1011.0
20260509180516 20 0.0 3.2 0.00 0.00 0.00 59 1011.2
20260509175516 21 0.0 0.0 0.00 0.00 0.00 57 1011.2
20260509174516 21 0.0 1.6 0.00 0.00 0.00 57 1011.3
20260509173516 21 0.0 8.0 0.00 0.00 0.00 56 1011.4
20260509172516 21 0.0 6.4 0.00 0.00 0.00 57 1011.4
20260509171536 20 0.0 6.4 0.00 0.00 0.00 58 1011.5
20260509170516 20 225 1.6 6.4 0.00 0.00 0.00 58 1011.6
20260509165516 20 293 3.2 14.5 0.00 0.00 0.00 59 1011.7
20260509164516 20 248 1.6 11.3 0.00 0.00 0.00 58 1011.8
20260509163516 20 225 1.6 16.1 0.00 0.00 0.00 58 1011.8
20260509162516 20 203 3.2 12.9 0.00 0.00 0.00 58 1011.8
20260509161516 20 225 1.6 6.4 0.00 0.00 0.00 58 1011.8
20260509160516 20 158 1.6 9.7 0.00 0.00 0.00 60 1011.9
20260509155516 19 158 3.2 12.9 0.00 0.00 0.00 60 1012.0
20260509154516 19 0.0 4.8 0.00 0.00 0.00 60 1012.1
20260509153636 19 203 3.2 12.9 0.00 0.00 0.00 59 1012.1
20260509152516 19 225 4.8 17.7 0.00 0.00 0.00 60 1012.2
20260509151516 18 203 1.6 14.5 0.00 0.00 0.00 62 1012.1
20260509150516 18 180 1.6 9.7 0.00 0.00 0.00 64 1012.3
20260509145536 17 225 1.6 8.0 0.00 0.00 0.00 65 1012.5
20260509144516 17 225 1.6 11.3 0.00 0.00 0.00 65 1012.6
20260509143516 16 203 1.6 9.7 0.00 0.00 0.00 66 1012.8
20260509142516 16 225 1.6 8.0 0.00 0.00 0.00 67 1012.9
20260509141516 16 203 1.6 9.7 0.00 0.00 0.00 67 1012.9
20260509140515 16 158 1.6 8.0 0.00 0.00 0.00 66 1012.8
20260509135516 16 180 1.6 11.3 0.00 0.00 0.00 67 1012.8
20260509134516 15 203 1.6 9.7 0.00 0.00 0.00 67 1012.9
20260509133516 15 0.0 6.4 0.00 0.00 0.00 67 1012.9
20260509132556 15 203 1.6 12.9 0.00 0.00 0.00 67 1013.0
20260509131516 15 0.0 6.4 0.00 0.00 0.00 66 1013.0
20260509130516 15 248 1.6 9.7 0.00 0.00 0.00 65 1013.0
20260509125516 15 225 3.2 14.5 0.00 0.00 0.00 65 1013.0
20260509124516 15 225 4.8 14.5 0.00 0.00 0.00 64 1012.7
20260509123536 15 203 3.2 11.3 0.00 0.00 0.00 64 1012.7
20260509122516 15 203 1.6 11.3 0.00 0.00 0.00 64 1012.7
20260509121515 15 180 4.8 16.1 0.00 0.00 0.00 63 1012.8
20260509120516 15 158 3.2 12.9 0.00 0.00 0.00 63 1012.7
20260509115516 15 203 1.6 12.9 0.00 0.00 0.00 62 1012.8
20260509114516 15 203 3.2 14.5 0.00 0.00 0.00 61 1012.8
20260509113515 15 135 1.6 11.3 0.00 0.00 0.00 61 1012.8
20260509112515 15 203 1.6 8.0 0.00 0.00 0.00 61 1012.6
20260509111515 15 248 1.6 11.3 0.00 0.00 0.00 60 1012.5
20260509110515 15 203 3.2 12.9 0.00 0.00 0.00 58 1012.6
20260509105516 15 225 1.6 8.0 0.00 0.00 0.00 58 1012.6
20260509104515 15 203 3.2 11.3 0.00 0.00 0.00 57 1012.6
20260509103516 15 203 3.2 14.5 0.00 0.00 0.00 56 1012.4
20260509102515 15 0.0 3.2 0.00 0.00 0.00 55 1012.3
20260509101516 15 0.0 0.0 0.00 0.00 0.00 55 1012.3
20260509100515 15 0.0 3.2 0.00 0.00 0.00 55 1012.2
20260509095516 15 0.0 3.2 0.00 0.00 0.00 55 1012.1
20260509094515 15 0.0 3.2 0.00 0.00 0.00 54 1012.1
20260509093556 15 0.0 3.2 0.00 0.00 0.00 54 1012.2
20260509092515 15 0.0 6.4 0.00 0.00 0.00 55 1012.4
20260509091515 15 0.0 4.8 0.00 0.00 0.00 54 1012.3
20260509090515 15 270 1.6 9.7 0.00 0.00 0.00 55 1012.4
20260509085515 15 203 3.2 16.1 0.00 0.00 0.00 56 1012.5
20260509084536 15 248 1.6 12.9 0.00 0.00 0.00 56 1012.5
20260509083516 15 0.0 6.4 0.00 0.00 0.00 57 1012.7
20260509082515 15 0.0 1.6 0.00 0.00 0.00 59 1012.8
20260509081535 15 0.0 1.6 0.00 0.00 0.00 59 1013.0
20260509080515 15 0.0 6.4 0.00 0.00 0.00 59 1013.0
20260509075515 15 158 1.6 11.3 0.00 0.00 0.00 59 1013.1
20260509074556 15 225 1.6 16.1 0.00 0.00 0.00 59 1013.2
20260509073516 15 225 1.6 12.9 0.00 0.00 0.00 58 1013.2
20260509072516 15 135 1.6 9.7 0.00 0.00 0.00 57 1013.1
20260509071515 15 225 1.6 9.7 0.00 0.00 0.00 57 1013.1
20260509070515 15 180 1.6 6.4 0.00 0.00 0.00 56 1013.2
20260509065515 15 270 1.6 8.0 0.00 0.00 0.00 55 1013.4
20260509064515 15 180 1.6 14.5 0.00 0.00 0.00 55 1013.3
20260509063535 15 203 1.6 6.4 0.00 0.00 0.00 55 1013.4
20260509062515 15 180 1.6 8.0 0.00 0.00 0.00 55 1013.5
20260509061515 15 225 1.6 8.0 0.00 0.00 0.00 55 1013.6
20260509060515 15 0.0 4.8 0.00 0.00 0.00 54 1013.5
20260509055515 15 0.0 6.4 0.00 0.00 0.00 54 1013.6
20260509054515 15 203 1.6 14.5 0.00 0.00 0.00 53 1013.6
20260509053515 15 0.0 6.4 0.00 0.00 0.00 54 1013.6
20260509052515 15 0.0 6.4 0.00 0.00 0.00 54 1013.6
20260509051515 15 0.0 8.0 0.00 0.00 0.00 54 1013.6
20260509050535 15 0.0 6.4 0.00 0.00 0.00 55 1013.5
20260509045515 15 0.0 6.4 0.00 0.00 0.00 55 1013.5